Location: Malanoce
(44.2500°N, 7.4667°E)
Time: 18:50:32
(UTC+00:00)

BlueWalker 3 - Pass Details

Date: 26 January 2026
Orbit: 450 x 461 km, 53.2° (Epoch: 11 February)

Event Time Altitude Azimuth Distance (km) Brightness Sun altitude
Rises 17:36:21 0° 259° (W) 2,453 7.6 -11.7°
Reaches altitude 10° 17:38:36 10° 269° (W) 1,581 5.9 -12.1°
Maximum altitude 17:41:53 35° 336° (NNW) 751 2.9 -12.7°
Enters shadow 17:44:16 16° 37° (NE) 1,257 3.5 -13.1°
